Star Epsilon — V7NZ7 — position and weather

sailwx.info

Track history (hours):
 
Tides and Currents Weather Stations Pressure Air Temp Water Temp Dewpoint Dewpoint Depression Visibility Wind Speed Wind Dir Waves Ship Positions

Star Epsilon

Last reported at 2014-Oct-16 17:11 UTC. Time now 2014-Oct-20 04:26 UTC.
Position N 41°15' W 073°58'.

Length 189 m; draft 9.2 m.

Type: Cargo ship. MMSI: 538003043.

Date/timePositionNaut miles runAvg speedWind from/ knotsBaromVisibWave heightAir tempDewpointWater temp
2014-Oct-16 17:11N 41°15' W 073°58'24 8.3
2014-Oct-16 14:17N 40°51' W 073°57'6 8.2
2014-Oct-16 13:33N 40°46' W 074°01'8 8.3
2014-Oct-16 12:33N 40°37' W 074°04'0 0.0
2014-Oct-16 11:28N 40°38' W 074°04'0 0.2
2014-Oct-16 10:13N 40°38' W 074°04'0 0.1
2014-Oct-16 08:07N 40°38' W 074°04'0 0.0
2014-Oct-16 05:07N 40°38' W 074°04'0 0.1
2014-Oct-16 03:10N 40°38' W 074°04'0 0.2
2014-Oct-16 02:16N 40°38' W 074°04'0 0.0
2014-Oct-16 01:07N 40°38' W 074°04'0 0.0
2014-Oct-15 23:31N 40°38' W 074°04'0 0.1
2014-Oct-15 21:22N 40°38' W 074°04'0 0.2
2014-Oct-15 20:31N 40°38' W 074°04'0 0.0
2014-Oct-15 19:25N 40°38' W 074°04'0 0.0
2014-Oct-15 18:31N 40°38' W 074°04'0 0.0
2014-Oct-15 17:25N 40°38' W 074°04'0 0.0
2014-Oct-15 16:31N 40°38' W 074°04'0 0.1
2014-Oct-15 15:25N 40°38' W 074°04'0 0.0
2014-Oct-15 14:31N 40°38' W 074°04'0 0.1
2014-Oct-15 12:04N 40°38' W 074°04'0 0.0
2014-Oct-15 11:13N 40°38' W 074°04'0 0.1
2014-Oct-15 10:31N 40°38' W 074°04'0 0.0
2014-Oct-15 09:25N 40°38' W 074°04'0 0.3
2014-Oct-15 08:31N 40°38' W 074°04'0 0.0
2014-Oct-15 07:31N 40°38' W 074°04'0 0.0
2014-Oct-15 06:28N 40°38' W 074°04'0 0.0
2014-Oct-15 05:25N 40°38' W 074°04'0 0.0
2014-Oct-15 04:31N 40°38' W 074°04'0 0.0
2014-Oct-15 03:31N 40°38' W 074°04'0 0.1
2014-Oct-15 02:31N 40°38' W 074°04'0 0.1
2014-Oct-15 00:16N 40°38' W 074°04'0 0.0
2014-Oct-14 23:31N 40°38' W 074°04'0 0.0
2014-Oct-14 22:28N 40°38' W 074°04'0 0.1
2014-Oct-14 21:31N 40°38' W 074°04'0 0.1
2014-Oct-14 20:28N 40°38' W 074°04'0 0.1
2014-Oct-14 19:16N 40°38' W 074°04'0 0.0
2014-Oct-14 18:31N 40°38' W 074°04'0 0.0
2014-Oct-14 17:31N 40°38' W 074°04'0 0.0
2014-Oct-14 16:31N 40°38' W 074°04'0 0.0
2014-Oct-14 15:31N 40°38' W 074°04'0 0.0
2014-Oct-14 14:25N 40°38' W 074°04'0 0.2
2014-Oct-14 13:10N 40°38' W 074°04'0 0.0
2014-Oct-14 11:31N 40°37' W 074°04'0 0.0
2014-Oct-14 10:19N 40°37' W 074°04'0 0.0
2014-Oct-14 09:31N 40°37' W 074°04'0 0.0
2014-Oct-14 08:25N 40°38' W 074°04'0 0.2
2014-Oct-14 07:31N 40°38' W 074°03'0 0.1
2014-Oct-14 05:28N 40°38' W 074°04'0 0.0
2014-Oct-13 19:13N 40°38' W 074°04'0 0.1
2014-Oct-13 17:25N 40°38' W 074°04'0 0.0
2014-Oct-13 16:31N 40°38' W 074°04'0 0.0
2014-Oct-13 15:31N 40°38' W 074°04'0 0.0
2014-Oct-13 14:31N 40°38' W 074°04'0 0.0
2014-Oct-13 13:31N 40°38' W 074°04'0 0.3
2014-Oct-13 12:31N 40°38' W 074°04'0 0.0
2014-Oct-13 11:31N 40°37' W 074°04'0 0.0
2014-Oct-13 10:31N 40°37' W 074°04'0 0.0
2014-Oct-13 09:31N 40°37' W 074°04'0 0.0
2014-Oct-13 08:28N 40°38' W 074°04'0 0.0
2014-Oct-13 07:28N 40°38' W 074°04'0 0.2
2014-Oct-13 06:25N 40°38' W 074°04'0 0.1
2014-Oct-13 05:31N 40°38' W 074°04'0 0.0
2014-Oct-13 04:31N 40°38' W 074°04'0 0.0
2014-Oct-13 03:31N 40°38' W 074°04'0 0.0
2014-Oct-13 02:31N 40°38' W 074°04'0 0.1
2014-Oct-13 01:31N 40°38' W 074°04'0 0.1
2014-Oct-13 00:31N 40°38' W 074°04'0 0.2
2014-Oct-12 23:31N 40°38' W 074°04'0 0.0
2014-Oct-12 22:31N 40°38' W 074°04'0 0.0
2014-Oct-12 21:33N 40°37' W 074°04'0 0.0
2014-Oct-12 20:31N 40°37' W 074°04'0 0.0
2014-Oct-12 19:33N 40°37' W 074°04'0 0.0
2014-Oct-12 18:32N 40°37' W 074°04'0 0.4
2014-Oct-12 17:32N 40°37' W 074°03'7 6.6
2014-Oct-12 16:33N 40°31' W 073°60'9 9.3
2014-Oct-12 15:32N 40°27' W 073°49'8 8.5
2014-Oct-12 14:33N 40°23' W 073°40'1412.3
2014-Oct-12 13:24N 40°14' W 073°25'1112.4
2014-Oct-12 12:31N 40°07' W 073°13'1112.0
2014-Oct-12 11:33N 40°05' W 072°58'1211.7
2014-Oct-12 10:33N 40°05' W 072°43'1312.7
2014-Oct-12 09:33N 40°04' W 072°27'1212.4
2014-Oct-12 08:33N 40°04' W 072°10'1312.6
2014-Oct-12 07:33N 40°04' W 071°54'1212.4
2014-Oct-12 06:33N 40°04' W 071°38'1312.4
2014-Oct-12 05:31N 40°04' W 071°21'1212.4
2014-Oct-12 04:33N 40°04' W 071°05'1212.4
2014-Oct-12 03:33N 40°03' W 070°49'1412.4
2014-Oct-12 02:25N 40°03' W 070°31'1112.5
2014-Oct-12 01:33N 40°03' W 070°16'1312.6
2014-Oct-12 00:33N 40°03' W 070°00'1312.8
2014-Oct-11 23:32N 40°03' W 069°43'  
Track history (hours):
 
Tides and Currents Weather Stations Pressure Air Temp Water Temp Dewpoint Dewpoint Depression Visibility Wind Speed Wind Dir Waves Ship Positions

Star Epsilon

Last reported at 2014-Oct-16 17:11 UTC. Time now 2014-Oct-20 04:26 UTC.
Position N 41°15' W 073°58'.

Length 189 m; draft 9.2 m.

Type: Cargo ship. MMSI: 538003043.

Date/timePositionNaut miles runAvg speedWind from/ knotsBaromVisibWave heightAir tempDewpointWater temp
2014-Oct-16 17:11N 41°15' W 073°58'24 8.3
2014-Oct-16 14:17N 40°51' W 073°57'6 8.2
2014-Oct-16 13:33N 40°46' W 074°01'8 8.3
2014-Oct-16 12:33N 40°37' W 074°04'0 0.0
2014-Oct-16 11:28N 40°38' W 074°04'0 0.2
2014-Oct-16 10:13N 40°38' W 074°04'0 0.1
2014-Oct-16 08:07N 40°38' W 074°04'0 0.0
2014-Oct-16 05:07N 40°38' W 074°04'0 0.1
2014-Oct-16 03:10N 40°38' W 074°04'0 0.2
2014-Oct-16 02:16N 40°38' W 074°04'0 0.0
2014-Oct-16 01:07N 40°38' W 074°04'0 0.0
2014-Oct-15 23:31N 40°38' W 074°04'0 0.1
2014-Oct-15 21:22N 40°38' W 074°04'0 0.2
2014-Oct-15 20:31N 40°38' W 074°04'0 0.0
2014-Oct-15 19:25N 40°38' W 074°04'0 0.0
2014-Oct-15 18:31N 40°38' W 074°04'0 0.0
2014-Oct-15 17:25N 40°38' W 074°04'0 0.0
2014-Oct-15 16:31N 40°38' W 074°04'0 0.1
2014-Oct-15 15:25N 40°38' W 074°04'0 0.0
2014-Oct-15 14:31N 40°38' W 074°04'0 0.1
2014-Oct-15 12:04N 40°38' W 074°04'0 0.0
2014-Oct-15 11:13N 40°38' W 074°04'0 0.1
2014-Oct-15 10:31N 40°38' W 074°04'0 0.0
2014-Oct-15 09:25N 40°38' W 074°04'0 0.3
2014-Oct-15 08:31N 40°38' W 074°04'0 0.0
2014-Oct-15 07:31N 40°38' W 074°04'0 0.0
2014-Oct-15 06:28N 40°38' W 074°04'0 0.0
2014-Oct-15 05:25N 40°38' W 074°04'0 0.0
2014-Oct-15 04:31N 40°38' W 074°04'0 0.0
2014-Oct-15 03:31N 40°38' W 074°04'0 0.1
2014-Oct-15 02:31N 40°38' W 074°04'0 0.1
2014-Oct-15 00:16N 40°38' W 074°04'0 0.0
2014-Oct-14 23:31N 40°38' W 074°04'0 0.0
2014-Oct-14 22:28N 40°38' W 074°04'0 0.1
2014-Oct-14 21:31N 40°38' W 074°04'0 0.1
2014-Oct-14 20:28N 40°38' W 074°04'0 0.1
2014-Oct-14 19:16N 40°38' W 074°04'0 0.0
2014-Oct-14 18:31N 40°38' W 074°04'0 0.0
2014-Oct-14 17:31N 40°38' W 074°04'0 0.0
2014-Oct-14 16:31N 40°38' W 074°04'0 0.0
2014-Oct-14 15:31N 40°38' W 074°04'0 0.0
2014-Oct-14 14:25N 40°38' W 074°04'0 0.2
2014-Oct-14 13:10N 40°38' W 074°04'0 0.0
2014-Oct-14 11:31N 40°37' W 074°04'0 0.0
2014-Oct-14 10:19N 40°37' W 074°04'0 0.0
2014-Oct-14 09:31N 40°37' W 074°04'0 0.0
2014-Oct-14 08:25N 40°38' W 074°04'0 0.2
2014-Oct-14 07:31N 40°38' W 074°03'0 0.1
2014-Oct-14 05:28N 40°38' W 074°04'0 0.0
2014-Oct-13 19:13N 40°38' W 074°04'0 0.1
2014-Oct-13 17:25N 40°38' W 074°04'0 0.0
2014-Oct-13 16:31N 40°38' W 074°04'0 0.0
2014-Oct-13 15:31N 40°38' W 074°04'0 0.0
2014-Oct-13 14:31N 40°38' W 074°04'0 0.0
2014-Oct-13 13:31N 40°38' W 074°04'0 0.3
2014-Oct-13 12:31N 40°38' W 074°04'0 0.0
2014-Oct-13 11:31N 40°37' W 074°04'0 0.0
2014-Oct-13 10:31N 40°37' W 074°04'0 0.0
2014-Oct-13 09:31N 40°37' W 074°04'0 0.0
2014-Oct-13 08:28N 40°38' W 074°04'0 0.0
2014-Oct-13 07:28N 40°38' W 074°04'0 0.2
2014-Oct-13 06:25N 40°38' W 074°04'0 0.1
2014-Oct-13 05:31N 40°38' W 074°04'0 0.0
2014-Oct-13 04:31N 40°38' W 074°04'0 0.0
2014-Oct-13 03:31N 40°38' W 074°04'0 0.0
2014-Oct-13 02:31N 40°38' W 074°04'0 0.1
2014-Oct-13 01:31N 40°38' W 074°04'0 0.1
2014-Oct-13 00:31N 40°38' W 074°04'0 0.2
2014-Oct-12 23:31N 40°38' W 074°04'0 0.0
2014-Oct-12 22:31N 40°38' W 074°04'0 0.0
2014-Oct-12 21:33N 40°37' W 074°04'0 0.0
2014-Oct-12 20:31N 40°37' W 074°04'0 0.0
2014-Oct-12 19:33N 40°37' W 074°04'0 0.0
2014-Oct-12 18:32N 40°37' W 074°04'0 0.4
2014-Oct-12 17:32N 40°37' W 074°03'7 6.6
2014-Oct-12 16:33N 40°31' W 073°60'9 9.3
2014-Oct-12 15:32N 40°27' W 073°49'8 8.5
2014-Oct-12 14:33N 40°23' W 073°40'1412.3
2014-Oct-12 13:24N 40°14' W 073°25'1112.4
2014-Oct-12 12:31N 40°07' W 073°13'1112.0
2014-Oct-12 11:33N 40°05' W 072°58'1211.7
2014-Oct-12 10:33N 40°05' W 072°43'1312.7
2014-Oct-12 09:33N 40°04' W 072°27'1212.4
2014-Oct-12 08:33N 40°04' W 072°10'1312.6
2014-Oct-12 07:33N 40°04' W 071°54'1212.4
2014-Oct-12 06:33N 40°04' W 071°38'1312.4
2014-Oct-12 05:31N 40°04' W 071°21'1212.4
2014-Oct-12 04:33N 40°04' W 071°05'1212.4
2014-Oct-12 03:33N 40°03' W 070°49'1412.4
2014-Oct-12 02:25N 40°03' W 070°31'1112.5
2014-Oct-12 01:33N 40°03' W 070°16'1312.6
2014-Oct-12 00:33N 40°03' W 070°00'1312.8
2014-Oct-11 23:32N 40°03' W 069°43'  

Dump ship's entire track history